F8BJE-13 Weather Reports


time (UTC)temp
C
wind
direction
speed
KPH
gust
KPH
rain 1hr
cm
rain 24hr
cm
rain mn
cm
humidity
%
barometer
mb
20260505035736 10 339 0.0 3.2 0.03 0.69 0.38 98 1010.2
20260505032735 10 347 1.6 4.8 0.08 0.64 0.36 97 1010.4
20260505025735 10 10 0.0 6.4 0.13 0.69 0.36 96 1010.7
20260505022736 10 11 4.8 4.8 0.10 0.58 0.25 96 1010.9
20260505015736 10 332 0.0 4.8 0.10 0.53 0.20 95 1010.8
20260505012736 10 312 0.0 6.4 0.10 0.46 0.13 94 1011.2
20260505005736 10 7 0.0 4.8 0.08 0.41 0.08 92 1011.3
20260505002735 10 26 1.6 4.8 0.03 0.36 0.03 90 1011.6
20260504235736 11 318 0.0 4.8 0.00 0.30 0.00 88 1011.7
20260504232735 10 283 0.0 1.6 0.00 0.30 0.00 88 1011.7
20260504225735 10 338 0.0 1.6 0.00 0.30 0.00 88 1011.5
20260504222736 10 325 0.0 3.2 0.00 0.30 0.00 87 1011.6
20260504215735 10 0 0.0 0.0 0.00 0.30 0.30 84 1012.0
20260504212736 10 0 0.0 0.0 0.00 0.30 0.30 83 1012.0
20260504205736 11 334 0.0 0.0 0.00 0.30 0.30 83 1012.4
20260504202735 11 199 0.0 1.6 0.00 0.30 0.30 82 1012.4
20260504195735 11 145 0.0 0.0 0.00 0.30 0.30 81 1012.4
20260504192736 12 287 0.0 1.6 0.00 0.30 0.30 80 1012.4
20260504185735 12 55 0.0 8.0 0.00 0.30 0.30 77 1012.5
20260504182736 13 189 0.0 3.2 0.00 0.30 0.30 75 1012.4
20260504175736 13 325 1.6 8.0 0.00 0.30 0.30 73 1012.4
20260504172736 14 296 1.6 11.3 0.00 0.30 0.30 73 1012.2
20260504045737 11 181 0.0 0.0 0.00 0.03 0.03 73 1014.2
20260504042737 11 311 0.0 4.8 0.00 0.03 0.03 74 1014.2